Back to catalog

STARLINK-2739

AliveCommunicationsVLEO
NORAD 48639·PAYLOAD·🇺🇸 United States

Launched May 26, 2021 from Cape Canaveral Space Force Station

Loading…

Next Passes (next 24 hours)

TLE

FreshSource: CelesTrak SupGP

Epoch: Sep 14, 2026, 20:44 UTC

1 48639C 21044B   26257.86437500 -.00025028  00000+0 -80465-3 0  2577
2 48639  53.1602 313.4755 0001272  83.7666 149.9833 15.31721463    16

Track STARLINK-2739 in real time with AllMySat

Download on the App Store